Вернуться в каталог

FALCON 9 R/B

АктивенHEO
NORAD 47307·ROCKET BODY·🇺🇸 United States

Запущен Jan 8, 2021 с Cape Canaveral Space Force Station

Loading…

Ближайшие Пролёты (ближайшие 24 часа)

TLE

СвежийSource: Space-Track

Эпоха: Sep 14, 2026, 07:26 UTC

1 47307U 21001B   26257.31033547  .00006730  72125-6  91749-3 0  9995
2 47307  15.1327 160.9747 7820497  81.6525 351.0438  1.65770577 31632

Отслеживайте FALCON 9 R/B в реальном времени с AllMySat

Download on the App Store